Notices

What's New in latest Release from April 7th, 2021:

- Updated Glossary, including Speed of Maximum Gust, and Total Hourly Precipitation

- Updated national and regional climate services offices contacts and prices information

- Addition of station inventory lists for 1981-2010, 1971-2000, and 1961-1990 Normals.

If you haven't already, please take our survey and provide feedback about our website: https://eccc.sondage-survey.ca/f/LanguageSelection.aspx?s=442ca660-fcf1-47c0-95a9-59707d6fd709

Hourly Data Report for November 26, 2016

VICTORIA UNIVERSITY CS
BRITISH COLUMBIA

48°27'25.200" N
123°18'16.600" W
60.10 m
1018598
71783
WYJ

Download Data

Hourly Data (November 2016)
Hourly Data Report for November 26, 2016
TIME
LST
Temp Definition
°C
Dew Point Definition
°C
Rel Hum Definition
%
Precip. Amount Definition
mm

Wind Dir Definition
10's deg

Wind Spd Definition
km/h
Visibility Definition
km
Stn Press Definition
kPa
Hmdx Definition


Wind Chill Definition


Weather Definition


00:00 6.9 6.3 96 0.9 2 9   99.86     LegendNANA
01:00 7.0 6.4 96 0.6 2 8   99.72     LegendNANA
02:00 6.9 6.4 97 1.0 2 8   99.58     LegendNANA
03:00 7.0 6.6 97 0.8 3 8   99.44     LegendNANA
04:00 7.5 7.1 97 0.2 2 5   99.28     LegendNANA
05:00 8.8 8.0 95 0.6 12 4   99.13     LegendNANA
06:00 9.2 8.2 94 0.4 15 7   99.02     LegendNANA
07:00 9.3 8.5 95 0.8 11 3   99.00     LegendNANA
08:00 5.8 5.2 96 1.7 35 11   99.05     LegendNANA
09:00 5.4 4.9 96 1.0 34 9   99.04     LegendNANA
10:00 5.6 5.0 96 0.0 35 4   99.10     LegendNANA
11:00 5.8 5.2 96 0.0 36 7   99.10     LegendNANA
12:00 5.4 4.6 95 0.3 1 10   99.11     LegendNANA
13:00 5.5 4.5 93 0.0 35 8   99.05     LegendNANA
14:00 5.4 4.3 93 0.0 35 9   99.02     LegendNANA
15:00 5.2 4.5 95 0.5 35 9   99.03     LegendNANA
16:00 5.2 4.6 95 0.6 34 9   99.07     LegendNANA
17:00 5.1 4.5 96 0.4 34 7   99.09     LegendNANA
18:00 4.9 4.3 96 0.0 32 7   99.13     LegendNANA
19:00 4.7 4.0 95 0.2 30 5   99.17     LegendNANA
20:00 4.7 3.9 94 0.2 31 4   99.23     LegendNANA
21:00 4.8 3.8 93 0.0 33 4   99.29     LegendNANA
22:00 4.6 3.5 93 0.0 28 4   99.34     LegendNANA
23:00 4.7 2.6 86 0.0 30 6   99.42     LegendNANA

Notes on Data Quality.

Legend

  • E = Estimated
  • M = Missing
  • NA = Not Available*
  • [empty] = Indicates an unobserved value
Date modified: